Home > Weather > Overland Park > Past weeks

Flag for U.S.A. Weather for the Past 2 Weeks in Overland Park, Kansas, U.S.A.

Now
18 °F

Clear.


Feels Like: 18 °F
Forecast: 19 / 44 °F
Wind: No wind

Location: Johnson County Executive Airport

Current Time: Feb 10, 2016 at 1:24:11 AM

Latest Report: Feb 10, 2016 at 12:53 AM


Visibility: 10 mi

Pressure: 30.28 "Hg

Humidity: 65%

Dew point: 8 °F

Location of Overland ParkLocation

Historic Weather in Overland Park — Graph

°F

Overland Park Temperature Yesterday

Maximum temperature yesterday: 29 °F (at 1:53 PM)
Minimum temperature yesterday: 19 °F (at 7:53 AM)
Average temperature yesterday: 24 °F

High & Low Weather Summary for the Past Weeks

 TemperatureHumidityPressure
High66 °F (Jan 29, 3:53 PM)96% (Feb 2, 6:53 AM)30.45 "Hg (Feb 2, 6:53 AM)
Low18 °F (Feb 4, 3:53 AM)20% (Feb 7, 4:53 PM)29.35 "Hg (Feb 2, 1:53 PM)
Average37 °F63%30.02 "Hg
* Reported Jan 25 11:53 PM — Feb 9 11:53 PM, Overland Park, Weather by CustomWeather, © 2016

Note: Actual official high and low records may vary slightly from our data, if they occured in-between our weather recording intervals... More about our weather records

Advertising

Overland Park Weather History for the Previous 24 Hours

 ConditionsComfort  
Time TempWeatherWind HumidityBarometerVisibility
11:53 PM
Tue, Feb 9
19 °FClear.3 mph62%30.30 "Hg10 mi
10:53 PM21 °FClear.6 mph57%30.30 "Hg10 mi
9:53 PM21 °FClear.8 mph55%30.31 "Hg10 mi
8:53 PM22 °FClear.9 mph50%30.30 "Hg10 mi
7:53 PM23 °FClear.10 mph46%30.30 "Hg10 mi
6:53 PM23 °FClear.10 mph44%30.29 "Hg10 mi
5:53 PM25 °FClear.9 mph35%30.27 "Hg10 mi
4:53 PM27 °FSunny.16 mph34%30.26 "Hg10 mi
3:53 PM27 °FSunny.20 mph35%30.24 "Hg10 mi
2:53 PM28 °FSunny.20 mph34%30.22 "Hg10 mi
1:53 PM29 °FSunny.18 mph36%30.21 "Hg10 mi
12:53 PM28 °FSunny.24 mph39%30.23 "Hg10 mi
11:53 AM25 °FSunny.15 mph48%30.23 "Hg10 mi
10:53 AM23 °FSunny.17 mph53%30.23 "Hg10 mi
9:53 AM21 °FPassing clouds.17 mph57%30.21 "Hg10 mi
8:53 AM19 °FSunny.21 mph59%30.20 "Hg10 mi
7:53 AM19 °FSunny.16 mph65%30.18 "Hg10 mi
6:53 AM22 °FPassing clouds.17 mph57%30.14 "Hg10 mi
5:53 AM23 °FClear.13 mph53%30.10 "Hg10 mi
4:53 AM25 °FClear.18 mph46%30.08 "Hg10 mi
3:53 AM26 °FClear.20 mph50%30.05 "Hg10 mi
2:53 AM27 °FClear.14 mph61%30.06 "Hg10 mi
1:53 AM27 °FClear.12 mph61%30.07 "Hg10 mi
Weather by CustomWeather, © 2016

See weather overviewHow to use our weather pages